"Pseudo-MPEC" for P10NTjW

Created 2019 May 21 9:07:18 UT using Find_Orb

Click here for an explanation of pseudo-MPECs

 
 Astrometry: 
     P10NTjW  C2019 05 11GsJDP`AstrometryC1CjxR-0H!s:hredacted;?4y=,!?ZclickmF51
     P10NTjW  C2019 05 11_'A/%qcen%PkpNwW9FX2`!here,NT#ZforUCn#(uxlIU@r5pc_y;F51
     P10NTjW  C2019 05 118aNJ!)0O]4cm12J9-H_bqo\i*RSCQn_C/gH0qX9.explanationFF51
     P10NTjW  C2019 05 11VUWB%KPM0lE%N4cZA,fiE/Rg1^j/F6@Hb[sl/]8.=fB!gAaf*nS0F51
     P10NTjW  C2019 05 14.26403 15 10 48.76 +24 18 09.5    ~5E6q 21.7 GVNEOCPI52
     P10NTjW  C2019 05 14.26737 15 10 48.57 +24 18 10.4    ~5E6q 21.5 GVNEOCPI52
     P10NTjW  C2019 05 14.27070 15 10 48.37 +24 18 13.5    ~5E6q 21.2 GVNEOCPI52
     P10NTjW  C2019 05 14.27403 15 10 48.13 +24 18 14.0    ~5E6q 21.0 GVNEOCPI52

Station data:
(F51) Pan-STARRS 1, Haleakala  (N20.707235 W156.255910)  US/Hawaii.
   Observers N. Primak, A. Schultz, S. Watters, J. Thiel, T. Goggia. Measurer
   PS1 Science Consortium. 1.8-m Ritchey-Chrétien + CCD.
(I52) Steward Observatory, Mt. Lemmon Station  (N32.442547 W110.788920)
   US/Arizona.  Observers T. A. Pruyne, B. M. Africano, E. J. Christensen, G.
   A. Farneth, D. C. Fuls, A. R. Gibbs, A. D. Grauer, H. Groeller, J. A.
   Johnson, R. A. Kowalski, S. M. Larson, G. J. Leonard, R. L. Seaman, F. C.
   Shelly. 1.0-m reflector + CCD.

Orbital elements:  P10NTjW
   Perihelion 2019 Nov 18.802806 +/- 381 TT = 19:16:02 (JD 2458806.302806)
Epoch 2019 May 14.0 TT = JDT 2458617.5   Earth MOID: 0.5018   AutoNEOCP
M 289.57720678 +/- 90               (J2000 ecliptic)
n   0.37299653 +/- 0.128            Peri.  163.93960 +/- 60
a   1.91131755 +/- 0.437            Node   158.06820 +/- 23
e   0.2118613 +/- 0.178             Incl.   21.47865 +/- 17
P   2.64/965.14d           H 19.4   G  0.15   U 11.4  SR
q 1.50638316 +/- 0.451    Q 2.31625194 +/- 1.17
From 8 observations 2019 May 11-14; mean residual 0".31
Residuals in arcseconds: 
190511 F51  .17-  .04-    190511 F51  .01+  .01-    190514 I52  .30+  .79+    
190511 F51  .17+  .04+    190514 I52  .36-  .23+    190514 I52  .02+  .42-    
190511 F51  .01-  .00     190514 I52  .04+  .59-    

Ephemerides (geocentric):
Date (UTC) HH   RA              Dec         delta   r     elong  mag " sig PA
---- -- -- --  -------------   -----------  ------ ------ -----  --- ---- ---
2019 05 21 09  15 03 32.929   +25 03 22.71  .98927 1.8383 133.4 21.8  427  72
2019 05 21 10  15 03 30.454   +25 03 33.11  .98932 1.8382 133.4 21.8  431  72
2019 05 21 11  15 03 27.981   +25 03 43.44  .98936 1.8381 133.4 21.8  435  72
2019 05 21 12  15 03 25.509   +25 03 53.70  .98941 1.8380 133.4 21.8  440  72
2019 05 21 13  15 03 23.038   +25 04 03.90  .98946 1.8379 133.3 21.8  444  72
2019 05 21 14  15 03 20.569   +25 04 14.04  .98950 1.8378 133.3 21.8  448  72
2019 05 21 15  15 03 18.101   +25 04 24.11  .98955 1.8376 133.3 21.8  453  72
2019 05 21 16  15 03 15.634   +25 04 34.12  .98960 1.8375 133.3 21.8  457  72
2019 05 21 17  15 03 13.169   +25 04 44.06  .98964 1.8374 133.2 21.8  461  72
2019 05 21 18  15 03 10.705   +25 04 53.94  .98969 1.8373 133.2 21.8  466  72
2019 05 21 19  15 03 08.243   +25 05 03.76  .98974 1.8372 133.2 21.8  470  72
2019 05 21 20  15 03 05.782   +25 05 13.51  .98979 1.8371 133.2 21.8  475  72
2019 05 21 21  15 03 03.322   +25 05 23.20  .98983 1.8370 133.1 21.8  479  72
2019 05 21 22  15 03 00.863   +25 05 32.82  .98988 1.8369 133.1 21.8  484  72
2019 05 21 23  15 02 58.406   +25 05 42.38  .98993 1.8367 133.1 21.8  488  72
2019 05 22 00  15 02 55.951   +25 05 51.87  .98998 1.8366 133.1 21.8  493  72
2019 05 22 01  15 02 53.496   +25 06 01.30  0.9900 1.8365 133.1 21.8  497  72
2019 05 22 02  15 02 51.044   +25 06 10.67  0.9901 1.8364 133.0 21.8  502  72
2019 05 22 03  15 02 48.592   +25 06 19.97  0.9901 1.8363 133.0 21.8  506  72
2019 05 22 04  15 02 46.142   +25 06 29.21  0.9902 1.8362 133.0 21.8  511  72
2019 05 22 05  15 02 43.694   +25 06 38.38  0.9902 1.8361 133.0 21.8  515  72
2019 05 22 06  15 02 41.247   +25 06 47.49  0.9903 1.8360 132.9 21.8  520  72
2019 05 22 07  15 02 38.801   +25 06 56.54  0.9903 1.8358 132.9 21.8  525  72
2019 05 22 08  15 02 36.357   +25 07 05.52  0.9904 1.8357 132.9 21.8  529  72
2019 05 22 09  15 02 33.914   +25 07 14.44  0.9904 1.8356 132.9 21.8  534  72
2019 05 22 10  15 02 31.473   +25 07 23.29  0.9905 1.8355 132.8 21.8  539  72
2019 05 22 11  15 02 29.033   +25 07 32.08  0.9905 1.8354 132.8 21.8  544  72
2019 05 22 12  15 02 26.595   +25 07 40.80  0.9906 1.8353 132.8 21.8  548  72
2019 05 22 13  15 02 24.158   +25 07 49.46  0.9906 1.8352 132.8 21.8  553  72
2019 05 22 14  15 02 21.722   +25 07 58.06  0.9907 1.8351 132.7 21.8  558  71
2019 05 22 15  15 02 19.289   +25 08 06.59  0.9907 1.8349 132.7 21.8  563  71
2019 05 22 16  15 02 16.856   +25 08 15.06  0.9908 1.8348 132.7 21.8  567  71
2019 05 22 17  15 02 14.425   +25 08 23.46  0.9908 1.8347 132.7 21.8  572  71
2019 05 22 18  15 02 11.996   +25 08 31.80  0.9909 1.8346 132.6 21.8  577  71
2019 05 22 19  15 02 09.568   +25 08 40.08  0.9910 1.8345 132.6 21.8  582  71
2019 05 22 20  15 02 07.142   +25 08 48.29  0.9910 1.8344 132.6 21.8  587  71
2019 05 22 21  15 02 04.717   +25 08 56.44  0.9911 1.8343 132.6 21.8  592  71
2019 05 22 22  15 02 02.294   +25 09 04.52  0.9911 1.8342 132.6 21.8  597  71
2019 05 22 23  15 01 59.873   +25 09 12.54  0.9912 1.8340 132.5 21.8  602  71
2019 05 23 00  15 01 57.452   +25 09 20.50  0.9912 1.8339 132.5 21.8  607  71
2019 05 23 01  15 01 55.034   +25 09 28.39  0.9913 1.8338 132.5 21.8  612  71
2019 05 23 02  15 01 52.617   +25 09 36.22  0.9913 1.8337 132.5 21.8  617  71
2019 05 23 03  15 01 50.202   +25 09 43.98  0.9914 1.8336 132.4 21.8  622  71
2019 05 23 04  15 01 47.788   +25 09 51.68  0.9914 1.8335 132.4 21.8  627  71
2019 05 23 05  15 01 45.376   +25 09 59.32  0.9915 1.8334 132.4 21.8  632  71
2019 05 23 06  15 01 42.965   +25 10 06.89  0.9915 1.8333 132.4 21.8  637  71
2019 05 23 07  15 01 40.556   +25 10 14.40  0.9916 1.8331 132.3 21.8  642  71
2019 05 23 08  15 01 38.149   +25 10 21.84  0.9917 1.8330 132.3 21.8  647  71